GW6265 Weather Reports


Display with metric or nautical units.
time (UTC)temp
F
wind
direction
speed
MPH
gust
MPH
rain 1hr
in
rain 24hr
in
rain mn
in
humidity
%
barometer
mb
20260506003417 51 71 0.0 2.0 0.00 0.03 0.03 64 1030.7
20260506002913 51 43 0.0 0.0 0.00 0.03 0.03 66 1030.8
20260506002409 51 44 0.0 0.0 0.00 0.03 0.03 66 1030.7
20260506001905 51 128 0.0 0.0 0.00 0.03 0.03 64 1030.7
20260506001402 51 76 1.0 2.0 0.00 0.03 0.03 64 1030.6
20260506000859 51 59 2.0 4.0 0.00 0.03 0.03 64 1030.5
20260506000357 51 84 2.0 2.0 0.00 0.03 0.03 63 1030.5
20260505235853 51 92 2.0 3.0 0.00 0.03 0.03 62 1030.5
20260505235351 51 61 3.0 4.0 0.00 0.03 0.03 62 1030.5
20260505234848 51 45 1.0 2.0 0.00 0.03 0.03 59 1030.3
20260505234346 51 79 0.0 2.0 0.00 0.03 0.03 59 1030.3
20260505233842 51 17 0.0 2.0 0.00 0.03 0.03 60 1030.3
20260505233340 51 172 0.0 1.0 0.00 0.03 0.03 60 1030.2
20260505232837 51 89 0.0 2.0 0.00 0.03 0.03 61 1030.1
20260505232335 52 172 0.0 1.0 0.00 0.03 0.03 61 1030.0
20260505231831 52 40 1.0 1.0 0.00 0.03 0.03 61 1029.9
20260505231329 52 161 0.0 2.0 0.00 0.03 0.03 60 1030.0
20260505230827 52 29 2.0 3.0 0.00 0.03 0.03 60 1030.1
20260505230324 52 28 2.0 2.0 0.00 0.03 0.03 60 1030.2
20260505225821 52 297 0.0 2.0 0.00 0.03 0.03 60 1030.2
20260505225318 52 354 0.0 3.0 0.00 0.03 0.03 61 1030.3
20260505224813 52 248 2.0 3.0 0.00 0.03 0.03 61 1030.4
20260505224311 52 277 2.0 4.0 0.00 0.03 0.03 60 1030.4
20260505223808 52 313 2.0 4.0 0.00 0.03 0.03 61 1030.5
20260505223305 52 317 2.0 3.0 0.00 0.03 0.03 61 1030.2
20260505222801 51 275 1.0 4.0 0.00 0.03 0.03 61 1030.6
20260505222257 52 289 2.0 5.0 0.00 0.03 0.03 62 1030.6
20260505221754 51 287 2.0 4.0 0.00 0.03 0.03 63 1030.5
20260505221251 51 295 0.0 3.0 0.00 0.03 0.03 63 1030.6
20260505220748 51 254 2.0 4.0 0.00 0.03 0.03 64 1030.6
20260505220245 51 39 1.0 5.0 0.00 0.03 0.03 63 1030.3
20260505215743 51 305 3.0 4.0 0.00 0.03 0.03 63 1030.3
20260505215241 51 321 1.0 7.0 0.00 0.03 0.03 62 1030.1
20260505214739 51 306 2.0 5.0 0.00 0.03 0.03 62 1030.0
20260505214236 51 13 0.0 6.0 0.00 0.03 0.03 62 1030.4
20260505213733 51 275 2.0 3.0 0.00 0.03 0.03 63 1030.1
20260505213230 51 265 4.0 6.0 0.00 0.03 0.03 62 1030.0
20260505212726 51 285 2.0 6.0 0.00 0.03 0.03 63 1030.1
20260505212223 51 282 6.0 8.0 0.00 0.03 0.03 63 1030.1
20260505211720 51 265 3.0 8.0 0.00 0.03 0.03 64 1029.9
20260505211218 51 279 5.0 9.0 0.00 0.03 0.03 66 1029.9
20260505210714 51 279 4.0 6.0 0.00 0.03 0.03 66 1030.0
20260505210211 51 278 2.0 5.0 0.00 0.03 0.03 67 1030.0
20260505205708 51 232 1.0 6.0 0.00 0.03 0.03 68 1030.1
20260505205206 51 321 2.0 6.0 0.00 0.03 0.03 69 1030.0
20260505204702 51 60 2.0 6.0 0.00 0.03 0.03 69 1029.9
20260505204200 52 18 0.0 6.0 0.00 0.03 0.03 70 1029.9
20260505203658 52 275 4.0 7.0 0.02 0.03 0.03 69 1030.2
20260505203154 52 275 2.0 6.0 0.02 0.03 0.03 69 1030.0
20260505202649 52 351 2.0 5.0 0.00 0.03 0.03 70 1029.7
20260505202146 52 259 3.0 5.0 0.00 0.03 0.03 68 1029.9
20260505201643 52 293 2.0 5.0 0.00 0.03 0.03 68 1029.8
20260505201141 53 165 2.0 5.0 0.00 0.03 0.03 69 1029.7
20260505200639 53 19 2.0 4.0 0.00 0.03 0.03 71 1029.6
20260505200135 53 141 0.0 2.0 0.00 0.03 0.03 72 1029.7
20260505195631 53 137 2.0 5.0 0.02 0.03 0.03 70 1029.8
20260505195129 53 126 2.0 5.0 0.09 0.03 0.03 68 1029.8
20260505194626 54 279 3.0 5.0 0.14 0.02 0.02 66 1029.4
20260505194121 55 29 3.0 6.0 0.05 0.01 0.01 62 1029.2
20260505193619 55 28 5.0 6.0 0.00 0.00 0.00 59 1029.4
20260505193116 56 313 3.0 4.0 0.00 0.00 0.00 58 1029.5
20260505192614 57 3 5.0 6.0 0.00 0.00 0.00 57 1029.2
20260505192111 57 330 4.0 6.0 0.00 0.00 0.00 56 1028.9
20260505191610 57 357 3.0 6.0 0.00 0.00 0.00 57 1028.9
20260505191107 58 354 2.0 6.0 0.00 0.00 0.00 51 1028.8
20260505190602 58 346 4.0 7.0 0.00 0.00 0.00 48 1028.7
20260505190058 58 26 3.0 6.0 0.00 0.00 0.00 48 1028.7
20260505185555 58 310 6.0 8.0 0.00 0.00 0.00 47 1028.7
20260505185051 59 345 4.0 13.0 0.00 0.00 0.00 46 1028.7
20260505184548 59 300 7.0 15.0 0.00 0.00 0.00 46 1028.3
20260505184045 59 286 3.0 9.0 0.00 0.00 0.00 47 1028.2
20260505183541 59 337 6.0 9.0 0.00 0.00 0.00 47 1028.4
20260505183039 60 347 6.0 12.0 0.00 0.00 0.00 46 1028.4
20260505182535 60 306 4.0 9.0 0.00 0.00 0.00 45 1028.1
20260505182032 60 287 10.0 13.0 0.00 0.00 0.00 46 1027.9
20260505181528 60 309 4.0 9.0 0.00 0.00 0.00 46 1028.0
20260505181026 61 305 5.0 8.0 0.00 0.00 0.00 46 1027.9
20260505180521 60 307 6.0 9.0 0.00 0.00 0.00 47 1027.9
20260505180020 60 14 4.0 13.0 0.00 0.00 0.00 48 1027.7
20260505175514 60 322 2.0 9.0 0.00 0.00 0.00 48 1027.6
20260505175012 61 295 6.0 12.0 0.00 0.00 0.00 48 1027.4
20260505174509 61 318 2.0 7.0 0.00 0.00 0.00 48 1027.4
20260505174004 61 288 8.0 9.0 0.00 0.00 0.00 48 1027.5
20260505173501 62 260 9.0 10.0 0.00 0.00 0.00 47 1027.3
20260505172958 62 283 6.0 10.0 0.00 0.00 0.00 50 1027.2
20260505172457 62 275 6.0 9.0 0.00 0.00 0.00 48 1027.3
20260505171956 63 331 2.0 9.0 0.00 0.00 0.00 48 1027.1
20260505171453 64 301 5.0 11.0 0.00 0.00 0.00 48 1026.6
20260505170949 63 274 6.0 8.0 0.00 0.00 0.00 52 1026.8
20260505170446 63 290 4.0 12.0 0.00 0.00 0.00 52 1026.7
20260505165942 63 333 1.0 14.0 0.00 0.00 0.00 52 1026.7
20260505165438 63 231 2.0 6.0 0.00 0.00 0.00 53 1026.3
20260505164933 63 293 9.0 9.0 0.00 0.00 0.00 53 1026.4
20260505164430 63 228 2.0 7.0 0.00 0.00 0.00 54 1026.4
20260505163928 63 341 0.0 5.0 0.00 0.00 0.00 55 1026.4
20260505163427 63 301 3.0 4.0 0.00 0.00 0.00 58 1026.4
20260505162926 62 67 2.0 5.0 0.00 0.00 0.00 60 1026.9
20260505162421 61 235 2.0 2.0 0.00 0.00 0.00 60 1026.8
20260505161918 61 101 1.0 3.0 0.00 0.00 0.00 60 1026.7
20260505161415 60 358 2.0 3.0 0.00 0.00 0.00 61 1026.9
20260505160912 60 14 3.0 6.0 0.00 0.00 0.00 62 1026.7
20260505160410 60 273 4.0 4.0 0.00 0.00 0.00 61 1026.7
20260505153349 59 354 4.0 4.0 0.00 0.00 0.00 61 1026.3
20260505152846 58 0 2.0 4.0 0.00 0.00 0.00 63 1026.0
20260505152344 58 355 4.0 6.0 0.00 0.00 0.00 64 1026.7
20260505151843 58 337 5.0 5.0 0.00 0.00 0.00 62 1026.6
20260505151340 58 345 3.0 5.0 0.00 0.00 0.00 63 1026.3
20260505150837 58 359 3.0 6.0 0.00 0.00 0.00 62 1025.9
20260505150334 58 354 3.0 4.0 0.00 0.00 0.00 63 1025.9
20260505140258 57 57 2.0 6.0 0.00 0.00 0.00 64 1024.8
20260505130222 64 311 3.0 8.0 0.00 0.00 0.00 66 1023.6
20260505124712 62 266 6.0 6.0 0.00 0.00 0.00 69 1023.3
20260505124209 62 347 1.0 4.0 0.00 0.00 0.00 70 1023.0
20260505123705 62 322 4.0 6.0 0.00 0.00 0.00 70 1022.9
20260505123202 62 332 3.0 10.0 0.00 0.00 0.00 69 1022.8
20260505122658 62 272 3.0 6.0 0.00 0.00 0.00 70 1022.8
20260505122155 62 276 2.0 7.0 0.00 0.00 0.00 70 1022.7
20260505121652 62 275 4.0 6.0 0.00 0.00 0.00 70 1022.7
20260505121148 62 249 3.0 5.0 0.00 0.00 0.00 69 1022.9
20260505120645 62 3 3.0 9.0 0.00 0.00 0.00 69 1022.7
20260505120141 62 277 3.0 7.0 0.00 0.00 0.00 69 1022.9
20260505115635 62 0 3.0 9.0 0.00 0.00 0.00 69 1022.8
20260505115133 62 332 2.0 6.0 0.00 0.00 0.00 69 1023.0
20260505114630 62 315 2.0 9.0 0.00 0.00 0.00 69 1022.9
20260505114126 62 310 4.0 10.0 0.00 0.00 0.00 69 1022.9
20260505113622 62 350 2.0 10.0 0.00 0.00 0.00 69 1022.7
20260505113119 62 261 2.0 8.0 0.00 0.00 0.00 69 1022.8
20260505112615 62 273 7.0 8.0 0.00 0.00 0.00 69 1022.6
20260505112114 61 24 3.0 6.0 0.00 0.00 0.00 69 1022.6
20260505111613 61 295 4.0 6.0 0.00 0.00 0.00 69 1022.3
20260505111109 61 242 4.0 6.0 0.00 0.00 0.00 70 1022.3
20260505110606 61 326 2.0 6.0 0.00 0.00 0.00 70 1022.5
20260505102038 61 313 2.0 4.0 0.00 0.00 0.00 70 1021.6
20260505101537 61 302 4.0 9.0 0.00 0.00 0.00 69 1021.6
20260505101033 62 324 2.0 10.0 0.00 0.00 0.00 69 1021.4
20260505100530 62 280 4.0 7.0 0.00 0.00 0.00 69 1021.3
20260505100027 62 267 6.0 7.0 0.00 0.00 0.00 69 1021.3
20260505095523 62 289 6.0 7.0 0.00 0.00 0.00 68 1021.2
20260505095019 62 321 3.0 9.0 0.00 0.00 0.00 68 1021.3
20260505094516 62 282 6.0 8.0 0.00 0.00 0.00 68 1021.0
20260505094012 62 357 2.0 9.0 0.00 0.00 0.00 68 1020.9
20260505093509 62 291 4.0 10.0 0.00 0.00 0.00 68 1021.3
20260505093006 62 320 4.0 9.0 0.00 0.00 0.00 68 1021.6
20260505092504 62 266 2.0 7.0 0.00 0.00 0.00 68 1021.2
20260505092001 62 295 4.0 6.0 0.00 0.00 0.00 68 1021.3
20260505091458 62 310 3.0 7.0 0.00 0.00 0.00 69 1021.2
20260505090956 62 315 4.0 5.0 0.00 0.00 0.00 69 1021.6
20260505090454 62 269 4.0 10.0 0.00 0.00 0.00 69 1021.2
20260505085951 62 348 4.0 8.0 0.00 0.00 0.00 69 1021.3
20260505085449 62 326 2.0 9.0 0.00 0.00 0.00 70 1021.2
20260505084947 61 298 4.0 9.0 0.00 0.00 0.00 70 1021.1
20260505084445 62 28 2.0 5.0 0.00 0.00 0.00 69 1021.1
20260505083943 62 280 4.0 8.0 0.00 0.00 0.00 69 1021.0
20260505083440 62 307 4.0 5.0 0.00 0.00 0.00 69 1021.4
20260505082936 62 5 3.0 8.0 0.00 0.00 0.00 69 1021.4
20260505082432 62 241 6.0 6.0 0.00 0.00 0.00 69 1021.4
20260505081929 62 1 3.0 5.0 0.00 0.00 0.00 69 1021.6
20260505081426 62 318 3.0 6.0 0.00 0.00 0.00 68 1021.7
20260505080922 62 323 2.0 8.0 0.00 0.00 0.00 68 1021.8
20260505080419 62 269 2.0 6.0 0.00 0.00 0.00 68 1021.7
20260505075914 62 285 3.0 8.0 0.00 0.00 0.00 68 1021.6
20260505075411 62 329 3.0 10.0 0.00 0.00 0.00 68 1021.7
20260505074909 62 304 5.0 8.0 0.00 0.00 0.00 68 1021.6
20260505074406 62 313 2.0 9.0 0.00 0.00 0.00 68 1021.7
20260505073903 62 10 2.0 4.0 0.00 0.00 0.00 68 1021.9
20260505073400 62 337 2.0 9.0 0.00 0.00 0.00 68 1021.8
20260505072857 62 311 2.0 6.0 0.00 0.00 0.00 67 1022.0
20260505072353 62 278 5.0 5.0 0.00 0.00 0.00 67 1021.9
20260505071850 62 308 3.0 6.0 0.00 0.00 0.00 66 1021.8
20260505071346 62 259 2.0 11.0 0.00 0.00 0.00 66 1021.7
20260505070845 62 288 5.0 7.0 0.00 0.00 0.00 66 1021.6
20260505070341 62 66 1.0 6.0 0.00 0.00 0.00 66 1021.8
20260505065836 63 286 2.0 12.0 0.00 0.00 0.00 65 1021.8
20260505065333 63 13 2.0 8.0 0.00 0.00 0.00 65 1021.7
20260505064830 63 281 7.0 9.0 0.00 0.00 0.00 65 1021.7
20260505064327 62 300 2.0 10.0 0.00 0.00 0.00 65 1021.9
20260505063825 62 303 4.0 5.0 0.00 0.00 0.00 65 1021.9
20260505063321 62 13 3.0 14.0 0.00 0.00 0.00 65 1021.8
20260505062817 63 308 5.0 5.0 0.00 0.00 0.00 64 1022.1
20260505062315 63 297 3.0 6.0 0.00 0.00 0.00 64 1022.0
20260505061812 63 349 3.0 9.0 0.00 0.00 0.00 64 1022.1
20260505061310 63 281 11.0 12.0 0.00 0.00 0.00 64 1022.2
20260505060807 63 257 12.0 13.0 0.00 0.00 0.00 63 1022.2
20260505060304 62 291 2.0 7.0 0.00 0.00 0.00 64 1022.3
20260505055759 62 291 3.0 6.0 0.00 0.00 0.00 64 1022.3
20260505055256 63 2 2.0 6.0 0.00 0.00 0.00 63 1022.4
20260505054753 63 232 2.0 9.0 0.00 0.00 0.00 63 1022.3
20260505054251 62 300 2.0 7.0 0.00 0.00 0.00 64 1022.4
20260505053749 63 266 4.0 7.0 0.00 0.00 0.00 64 1022.3
20260505053245 63 253 4.0 4.0 0.00 0.00 0.00 64 1022.4
20260505052743 63 234 3.0 5.0 0.00 0.00 0.00 64 1022.2
20260505052239 63 256 7.0 9.0 0.00 0.00 0.00 64 1022.1
20260505051736 63 68 3.0 6.0 0.00 0.00 0.00 64 1022.2
20260505051234 63 27 2.0 6.0 0.00 0.00 0.00 64 1022.3
20260505050732 63 271 3.0 6.0 0.00 0.00 0.00 64 1022.3
20260505050230 63 283 4.0 7.0 0.00 0.00 0.00 63 1022.3
20260505041700 63 284 3.0 8.0 0.00 0.00 0.00 62 1022.4
20260505041157 63 179 2.0 7.0 0.00 0.00 0.00 62 1022.4
20260505040654 63 255 9.0 11.0 0.00 0.00 0.00 62 1022.5
20260505040151 63 340 2.0 7.0 0.00 0.00 0.00 62 1022.4
20260505035648 63 354 2.0 9.0 0.00 0.00 0.00 61 1022.2
20260505035144 62 336 4.0 10.0 0.00 0.00 0.00 61 1022.6
20260505034640 62 62 3.0 5.0 0.00 0.00 0.00 60 1022.5
20260505034138 62 332 3.0 4.0 0.00 0.00 0.00 59 1022.5
20260505033634 62 83 1.0 6.0 0.00 0.00 0.00 58 1022.4
20260505033133 62 265 2.0 6.0 0.00 0.00 0.00 57 1022.6
20260505032630 62 232 4.0 5.0 0.00 0.00 0.00 56 1022.6
20260505032126 63 118 2.0 4.0 0.00 0.00 0.00 55 1022.7
20260505031624 63 199 1.0 6.0 0.00 0.00 0.00 54 1022.8
20260505031120 63 275 3.0 3.0 0.00 0.00 0.00 53 1023.0
20260505030617 63 242 3.0 4.0 0.00 0.00 0.00 52 1022.9
20260505030113 63 253 3.0 4.0 0.00 0.00 0.00 50 1022.9
20260505025608 64 245 5.0 6.0 0.00 0.00 0.00 50 1023.0
20260505025108 64 263 4.0 4.0 0.00 0.00 0.00 49 1023.1
20260505024604 64 304 1.0 5.0 0.00 0.00 0.00 48 1023.2
20260505024102 64 319 2.0 4.0 0.00 0.00 0.00 47 1023.2
20260505023559 64 354 3.0 6.0 0.00 0.00 0.00 46 1023.1
20260505023056 64 200 3.0 7.0 0.00 0.00 0.00 45 1023.3
20260505022554 64 262 4.0 6.0 0.00 0.00 0.00 45 1023.4
20260505022051 64 180 1.0 5.0 0.00 0.00 0.00 44 1023.1
20260505021547 64 247 4.0 5.0 0.00 0.00 0.00 43 1023.3
20260505021044 64 258 8.0 9.0 0.00 0.00 0.00 42 1023.4
20260505020543 65 211 0.0 4.0 0.00 0.00 0.00 42 1023.3
20260505020041 65 207 3.0 4.0 0.00 0.00 0.00 41 1023.3
20260505015538 65 266 2.0 3.0 0.00 0.00 0.00 40 1023.3
20260505015035 65 242 0.0 5.0 0.00 0.00 0.00 40 1023.2
20260505014531 66 219 1.0 5.0 0.00 0.00 0.00 39 1023.3
20260505014029 66 98 1.0 4.0 0.00 0.00 0.00 39 1023.4
20260505013526 66 250 4.0 7.0 0.00 0.00 0.00 38 1023.1
20260505013023 66 236 2.0 5.0 0.00 0.00 0.00 38 1023.2
20260505012522 66 182 3.0 7.0 0.00 0.00 0.00 38 1023.1
20260505012018 67 213 0.0 3.0 0.00 0.00 0.00 39 1023.2
20260505011513 67 264 2.0 9.0 0.00 0.00 0.00 38 1023.3
20260505011011 67 239 1.0 7.0 0.00 0.00 0.00 38 1023.1
20260505010506 67 226 2.0 7.0 0.00 0.00 0.00 37 1023.3
20260505010002 67 268 4.0 7.0 0.00 0.00 0.00 37 1023.2
20260505005459 67 250 4.0 7.0 0.00 0.00 0.00 37 1023.1
20260505004957 67 304 3.0 13.0 0.00 0.00 0.00 36 1023.0
20260505004454 68 268 3.0 7.0 0.00 0.00 0.00 36 1023.1
20260505003950 68 276 3.0 8.0 0.00 0.00 0.00 35 1023.1